Weather in Bogoyavleniye

Russia / Nizhny Novgorod Oblast'     55°49′29″N   43°59′16″E
temp.,
°C
wind,
m/s
gust,
m/s
humid.,
%
clouds,
%
prec.,
mm/h
press.,
hPa
HPBL,
m
17 april, sat
sat1700:00+8ene5128787 0.0 1024383
03:00+6ene5128860 0.0 1025316
06:00+5ene5138080 0.0 1025357
09:00+9e6106321 0.0 1025522
12:00+13e785430 0.0 1025911
15:00+14e685019 0.0 10241151
18:00+12ene6105284 0.0 1023680
21:00+8ene412575 0.0 1024387
18 april, sun
sun1800:00+6ene514675 0.0 1024425
03:00+4e412725 0.0 1024381
06:00+4ene513745 0.0 1024392
09:00+8e6105747 0.0 1024712
12:00+12e684392 0.0 10231287
15:00+13e5843100 0.0 10231729
18:00+11e4954100 0.0 1023405
21:00+9ene61263100 0.0 1024596
19 april, mon
mon1900:00+6ene51174100 0.0 1026622
03:00+4ene5107999 0.0 1026528
06:00+4ene51174100 0.0 1027545
09:00+5e7105988 0.0 1028729
12:00+8e795063 0.0 10271268
15:00+9e79406 0.0 10271547
18:00+7e710455 0.0 10271238
21:00+4e613554 0.0 1028684
20 april, tue
tue2000:00+2e61360100 0.0 1028545
03:00+1e6136896 0.0 1027491
06:00+2e61469100 0.0 1027548
09:00+4e7136883 0.0 1026697
12:00+9ese8125752 0.0 10251129
15:00+11ese81253100 0.0 10231395
18:00+8ese91560100 0.0 10211141
21:00+7ese91763100 0.0 10201088
21 april, wed
wed2100:00+6se91867100 0.0 1017917
03:00+5ese102183100 2.1 1014817
06:00+5se91990100 3.4 1013981
09:00+6se91789100 5.3 10131037
12:00+8sse91785100 0.0 10131199
15:00+8sse81487100 0.1 10141062
18:00+7sse71293100 0.2 1016856
21:00+7s4991100 0.6 1018526